Location: Paris
(48.8566°N, 2.3522°E)
Time: 01:35:15
(UTC+02:00)

Envisat - Visible Passes

Search period start: 22 September 2021 00:00
Search period end: 02 October 2021 00:00
Orbit: 764 x 766 km, 98.2° (Epoch: 21 September)

Date Brightness Start Highest point End Pass type
(mag) Time Alt. Az. Time Alt. Az. Time Alt. Az.
22 Sep 5.3 06:10:31 10° NE 06:14:45 26° E 06:18:58 10° SSE visible
23 Sep 6.1 05:35:16 10° ENE 05:37:27 13° E 05:39:38 10° ESE visible
24 Sep 4.4 06:35:27 10° NNE 06:40:18 42° E 06:45:05 10° SSE visible
25 Sep 5.6 05:59:18 10° NE 06:03:08 21° E 06:06:56 10° SE visible
26 Sep 3.4 07:00:38 10° NNE 07:05:43 70° ESE 07:10:47 10° S visible
27 Sep 4.8 06:24:05 10° NNE 06:28:42 34° E 06:33:18 10° SSE visible
28 Sep 5.9 05:48:12 10° NE 05:51:29 17° E 05:54:45 10° SE visible
29 Sep 3.8 06:49:10 10° NNE 06:54:11 56° E 06:59:10 10° S visible
30 Sep 5.2 06:12:45 10° NE 06:17:06 28° E 06:21:25 10° SSE visible
01 Oct 6.0 05:37:17 10° ENE 05:39:49 14° E 05:42:19 10° ESE visible
01 Oct 3.1 07:14:26 10° NNE 07:19:33 89° WNW 07:24:39 10° SSW visible
